Time,TemperatureF,DewpointF,PressureIn,WindDirection,WindDirectionDegrees,WindSpeedMPH,WindSpeedGustMPH,Humidity,HourlyPrecipIn,Conditions,Clouds,dailyrainin,SoftwareType,DateUTC
2013-06-29 00:02:00,64.9,53.7,29.51,ENE,75,11.0,14.0,67,0.00,,,0.00,Wunderground v.1.15,2013-06-29 04:02:00,
2013-06-29 00:04:00,64.7,53.9,29.51,ENE,77,12.0,14.0,68,0.00,,,0.00,Wunderground v.1.15,2013-06-29 04:04:00,
2013-06-29 00:06:00,64.7,53.9,29.51,ENE,75,12.0,17.0,68,0.00,,,0.00,Wunderground v.1.15,2013-06-29 04:06:00,
2013-06-29 00:10:00,64.5,53.7,29.51,ENE,77,12.0,12.0,68,0.00,,,0.00,Wunderground v.1.15,2013-06-29 04:10:00,
2013-06-29 00:16:00,64.3,53.1,29.50,ENE,75,11.0,12.0,67,0.00,,,0.00,Wunderground v.1.15,2013-06-29 04:16:00,
2013-06-29 00:22:00,64.5,52.9,29.50,ENE,77,10.0,10.0,66,0.00,,,0.00,Wunderground v.1.15,2013-06-29 04:22:00,
2013-06-29 00:26:00,64.7,52.7,29.50,ENE,77,9.0,11.0,65,0.00,,,0.00,Wunderground v.1.15,2013-06-29 04:26:00,
2013-06-29 00:32:00,64.9,52.4,29.50,ENE,77,9.0,15.0,64,0.00,,,0.00,Wunderground v.1.15,2013-06-29 04:32:00,
2013-06-29 00:38:00,64.7,52.7,29.50,ENE,77,9.0,10.0,65,0.00,,,0.00,Wunderground v.1.15,2013-06-29 04:38:00,
2013-06-29 00:44:00,64.2,53.4,29.50,ENE,78,10.0,11.0,68,0.00,,,0.00,Wunderground v.1.15,2013-06-29 04:44:00,
2013-06-29 00:50:00,63.9,53.5,29.50,ENE,77,10.0,10.0,69,0.00,,,0.00,Wunderground v.1.15,2013-06-29 04:50:00,
2013-06-29 00:56:00,64.0,53.6,29.50,ENE,76,9.0,10.0,69,0.00,,,0.00,Wunderground v.1.15,2013-06-29 04:56:00,
2013-06-29 01:02:00,64.1,53.3,29.50,ENE,77,9.0,12.0,68,0.00,,,0.00,Wunderground v.1.15,2013-06-29 05:02:00,
2013-06-29 01:08:00,64.1,53.7,29.50,East,79,9.0,13.0,69,0.00,,,0.00,Wunderground v.1.15,2013-06-29 05:08:00,
2013-06-29 01:14:00,63.9,53.9,29.50,ENE,77,10.0,13.0,70,0.00,,,0.00,Wunderground v.1.15,2013-06-29 05:14:00,
2013-06-29 01:20:00,63.6,54.0,29.49,ENE,75,10.0,12.0,71,0.00,,,0.00,Wunderground v.1.15,2013-06-29 05:20:00,
2013-06-29 01:26:00,63.4,54.2,29.49,ENE,75,10.0,12.0,72,0.00,,,0.00,Wunderground v.1.15,2013-06-29 05:26:00,
2013-06-29 01:32:00,63.3,54.5,29.49,ENE,75,10.0,11.0,73,0.00,,,0.00,Wunderground v.1.15,2013-06-29 05:32:00,
2013-06-29 01:38:00,63.4,54.2,29.49,ENE,75,10.0,13.0,72,0.00,,,0.00,Wunderground v.1.15,2013-06-29 05:38:00,
2013-06-29 01:44:00,63.6,54.0,29.49,ENE,73,11.0,16.0,71,0.00,,,0.00,Wunderground v.1.15,2013-06-29 05:44:00,
2013-06-29 01:50:00,63.6,54.4,29.49,ENE,75,11.0,13.0,72,0.00,,,0.00,Wunderground v.1.15,2013-06-29 05:50:00,
2013-06-29 01:56:00,63.6,54.0,29.49,ENE,75,10.0,13.0,71,0.00,,,0.00,Wunderground v.1.15,2013-06-29 05:56:00,
2013-06-29 02:02:00,63.7,54.1,29.49,ENE,75,8.0,13.0,71,0.00,,,0.00,Wunderground v.1.15,2013-06-29 06:02:00,
2013-06-29 02:08:00,63.6,54.4,29.49,ENE,73,8.0,13.0,72,0.00,,,0.00,Wunderground v.1.15,2013-06-29 06:08:00,
2013-06-29 02:14:00,63.4,54.6,29.49,ENE,73,8.0,9.0,73,0.00,,,0.00,Wunderground v.1.15,2013-06-29 06:14:00,
2013-06-29 02:20:00,63.3,54.5,29.49,ENE,73,7.0,7.0,73,0.00,,,0.00,Wunderground v.1.15,2013-06-29 06:20:00,
2013-06-29 02:26:00,63.1,54.7,29.48,ENE,75,6.0,10.0,74,0.00,,,0.00,Wunderground v.1.15,2013-06-29 06:26:00,
2013-06-29 02:32:00,63.0,54.9,29.48,ENE,73,7.0,9.0,75,0.00,,,0.00,Wunderground v.1.15,2013-06-29 06:32:00,
2013-06-29 02:38:00,62.8,55.1,29.48,ENE,78,9.0,13.0,76,0.00,,,0.00,Wunderground v.1.15,2013-06-29 06:38:00,
2013-06-29 02:44:00,62.7,55.0,29.48,ENE,77,11.0,13.0,76,0.00,,,0.00,Wunderground v.1.15,2013-06-29 06:44:00,
2013-06-29 02:50:00,62.5,54.8,29.48,ENE,77,10.0,10.0,76,0.00,,,0.00,Wunderground v.1.15,2013-06-29 06:50:00,
2013-06-29 02:56:00,62.3,54.6,29.47,ENE,77,10.0,14.0,76,0.00,,,0.00,Wunderground v.1.15,2013-06-29 06:56:00,
2013-06-29 03:02:00,62.4,54.4,29.47,ENE,77,10.0,14.0,75,0.00,,,0.00,Wunderground v.1.15,2013-06-29 07:02:00,
2013-06-29 03:08:00,62.3,54.3,29.47,ENE,78,10.0,15.0,75,0.00,,,0.00,Wunderground v.1.15,2013-06-29 07:08:00,
2013-06-29 03:14:00,62.2,54.2,29.47,ENE,78,10.0,10.0,75,0.00,,,0.00,Wunderground v.1.15,2013-06-29 07:14:00,
2013-06-29 03:20:00,62.3,53.9,29.47,ENE,77,10.0,10.0,74,0.00,,,0.00,Wunderground v.1.15,2013-06-29 07:20:00,
2013-06-29 03:26:00,62.3,53.5,29.47,ENE,77,9.0,10.0,73,0.00,,,0.00,Wunderground v.1.15,2013-06-29 07:26:00,
2013-06-29 03:32:00,62.4,53.6,29.48,ENE,77,7.0,9.0,73,0.00,,,0.00,Wunderground v.1.15,2013-06-29 07:32:00,
2013-06-29 03:38:00,62.5,53.3,29.48,ENE,77,4.0,9.0,72,0.00,,,0.00,Wunderground v.1.15,2013-06-29 07:38:00,
2013-06-29 03:44:00,62.7,52.8,29.47,ENE,76,4.0,9.0,70,0.00,,,0.00,Wunderground v.1.15,2013-06-29 07:44:00,
2013-06-29 03:50:00,62.8,52.5,29.47,ENE,77,5.0,9.0,69,0.00,,,0.00,Wunderground v.1.15,2013-06-29 07:50:00,
2013-06-29 03:56:00,62.9,52.2,29.47,ENE,77,6.0,10.0,68,0.00,,,0.00,Wunderground v.1.15,2013-06-29 07:56:00,
2013-06-29 04:02:00,62.8,52.1,29.47,ENE,77,6.0,9.0,68,0.00,,,0.00,Wunderground v.1.15,2013-06-29 08:02:00,
2013-06-29 04:08:00,62.9,52.2,29.47,ENE,77,5.0,9.0,68,0.00,,,0.00,Wunderground v.1.15,2013-06-29 08:08:00,
2013-06-29 04:14:00,62.8,52.1,29.47,ENE,77,6.0,9.0,68,0.00,,,0.00,Wunderground v.1.15,2013-06-29 08:14:00,
2013-06-29 04:20:00,62.8,51.7,29.47,ENE,76,5.0,9.0,67,0.00,,,0.00,Wunderground v.1.15,2013-06-29 08:20:00,
2013-06-29 04:26:00,62.8,51.3,29.47,ENE,75,6.0,9.0,66,0.00,,,0.00,Wunderground v.1.15,2013-06-29 08:26:00,
2013-06-29 04:32:00,62.8,51.7,29.47,ENE,75,7.0,10.0,67,0.00,,,0.00,Wunderground v.1.15,2013-06-29 08:32:00,
2013-06-29 04:38:00,62.8,52.1,29.47,ENE,75,8.0,10.0,68,0.00,,,0.00,Wunderground v.1.15,2013-06-29 08:38:00,
2013-06-29 04:44:00,62.7,51.6,29.47,ENE,78,9.0,12.0,67,0.00,,,0.00,Wunderground v.1.15,2013-06-29 08:44:00,
2013-06-29 04:50:00,63.0,51.0,29.47,ENE,78,8.0,9.0,65,0.00,,,0.00,Wunderground v.1.15,2013-06-29 08:50:00,
2013-06-29 04:56:00,63.3,50.9,29.47,ENE,73,9.0,9.0,64,0.00,,,0.00,Wunderground v.1.15,2013-06-29 08:56:00,
2013-06-29 05:02:00,63.3,51.3,29.47,ENE,73,9.0,11.0,65,0.00,,,0.00,Wunderground v.1.15,2013-06-29 09:02:00,
2013-06-29 05:08:00,63.6,50.8,29.48,ENE,72,9.0,14.0,63,0.00,,,0.00,Wunderground v.1.15,2013-06-29 09:08:00,
2013-06-29 05:14:00,64.0,50.7,29.48,ENE,78,9.0,12.0,62,0.00,,,0.00,Wunderground v.1.15,2013-06-29 09:14:00,
2013-06-29 05:20:00,64.0,51.1,29.48,ENE,75,10.0,10.0,63,0.00,,,0.00,Wunderground v.1.15,2013-06-29 09:20:00,
2013-06-29 05:26:00,63.7,51.3,29.48,ENE,78,10.0,10.0,64,0.00,,,0.00,Wunderground v.1.15,2013-06-29 09:26:00,
2013-06-29 05:32:00,63.8,51.4,29.48,ENE,74,10.0,18.0,64,0.00,,,0.00,Wunderground v.1.15,2013-06-29 09:32:00,
2013-06-29 05:38:00,64.0,51.1,29.49,ENE,78,10.0,18.0,63,0.00,,,0.00,Wunderground v.1.15,2013-06-29 09:38:00,
2013-06-29 05:45:00,64.2,50.9,29.49,ENE,74,10.0,10.0,62,0.00,,,0.00,Wunderground v.1.15,2013-06-29 09:45:00,
2013-06-29 05:50:00,64.2,50.9,29.49,ENE,74,10.0,10.0,62,0.00,,,0.00,Wunderground v.1.15,2013-06-29 09:50:00,
2013-06-29 05:56:00,64.2,50.5,29.50,ENE,77,10.0,13.0,61,0.00,,,0.00,Wunderground v.1.15,2013-06-29 09:56:00,
2013-06-29 06:02:00,64.2,50.9,29.50,ENE,76,9.0,13.0,62,0.00,,,0.00,Wunderground v.1.15,2013-06-29 10:02:00,
2013-06-29 06:09:00,64.1,50.8,29.50,ENE,73,8.0,14.0,62,0.00,,,0.00,Wunderground v.1.15,2013-06-29 10:09:00,
2013-06-29 06:15:00,64.1,50.8,29.50,ENE,74,9.0,9.0,62,0.00,,,0.00,Wunderground v.1.15,2013-06-29 10:15:00,
2013-06-29 06:20:00,64.2,50.9,29.50,ENE,75,10.0,14.0,62,0.00,,,0.00,Wunderground v.1.15,2013-06-29 10:20:00,
2013-06-29 06:27:00,64.3,51.0,29.50,ENE,73,10.0,15.0,62,0.00,,,0.00,Wunderground v.1.15,2013-06-29 10:27:00,
2013-06-29 06:33:00,64.3,51.4,29.50,ENE,73,9.0,10.0,63,0.00,,,0.00,Wunderground v.1.15,2013-06-29 10:33:00,
2013-06-29 06:38:00,64.3,51.4,29.50,ENE,75,11.0,14.0,63,0.00,,,0.00,Wunderground v.1.15,2013-06-29 10:38:00,
2013-06-29 06:45:00,64.1,51.7,29.50,ENE,75,11.0,11.0,64,0.00,,,0.00,Wunderground v.1.15,2013-06-29 10:45:00,
2013-06-29 06:51:00,64.0,51.6,29.50,ENE,74,11.0,11.0,64,0.00,,,0.00,Wunderground v.1.15,2013-06-29 10:51:00,
2013-06-29 06:57:00,64.0,52.0,29.50,ENE,75,11.0,13.0,65,0.00,,,0.00,Wunderground v.1.15,2013-06-29 10:57:00,
2013-06-29 07:02:00,63.8,51.8,29.50,ENE,75,12.0,12.0,65,0.00,,,0.00,Wunderground v.1.15,2013-06-29 11:02:00,
2013-06-29 07:09:00,63.8,52.2,29.50,ENE,75,12.0,16.0,66,0.00,,,0.00,Wunderground v.1.15,2013-06-29 11:09:00,
2013-06-29 07:15:00,63.6,52.4,29.51,ENE,75,12.0,19.0,67,0.00,,,0.00,Wunderground v.1.15,2013-06-29 11:15:00,
2013-06-29 07:21:00,63.7,52.1,29.51,ENE,73,10.0,11.0,66,0.00,,,0.00,Wunderground v.1.15,2013-06-29 11:21:00,
2013-06-29 07:27:00,63.8,52.6,29.52,ENE,75,11.0,16.0,67,0.00,,,0.00,Wunderground v.1.15,2013-06-29 11:27:00,
2013-06-29 07:33:00,63.7,52.5,29.52,ENE,78,11.0,11.0,67,0.00,,,0.00,Wunderground v.1.15,2013-06-29 11:33:00,
2013-06-29 07:39:00,63.8,52.6,29.52,ENE,74,11.0,17.0,67,0.00,,,0.00,Wunderground v.1.15,2013-06-29 11:39:00,
2013-06-29 07:45:00,63.8,52.6,29.52,ENE,78,12.0,14.0,67,0.00,,,0.00,Wunderground v.1.15,2013-06-29 11:45:00,
2013-06-29 07:51:00,63.8,52.6,29.52,ENE,73,13.0,13.0,67,0.00,,,0.00,Wunderground v.1.15,2013-06-29 11:51:00,
2013-06-29 07:57:00,63.9,53.1,29.52,ENE,77,13.0,16.0,68,0.00,,,0.00,Wunderground v.1.15,2013-06-29 11:57:00,
2013-06-29 08:03:00,63.9,53.1,29.52,ENE,75,12.0,17.0,68,0.00,,,0.00,Wunderground v.1.15,2013-06-29 12:03:00,
2013-06-29 08:09:00,64.0,52.8,29.52,ENE,73,12.0,17.0,67,0.00,,,0.00,Wunderground v.1.15,2013-06-29 12:09:00,
2013-06-29 08:15:00,64.3,53.1,29.52,ENE,77,12.0,19.0,67,0.00,,,0.00,Wunderground v.1.15,2013-06-29 12:15:00,
2013-06-29 08:21:00,64.2,53.8,29.52,ENE,75,12.0,15.0,69,0.00,,,0.00,Wunderground v.1.15,2013-06-29 12:21:00,
2013-06-29 08:27:00,64.3,53.5,29.53,ENE,72,12.0,16.0,68,0.00,,,0.00,Wunderground v.1.15,2013-06-29 12:27:00,
2013-06-29 08:33:00,64.6,53.8,29.53,ENE,75,10.0,11.0,68,0.00,,,0.00,Wunderground v.1.15,2013-06-29 12:33:00,
2013-06-29 08:39:00,64.9,54.1,29.53,ENE,75,9.0,13.0,68,0.00,,,0.00,Wunderground v.1.15,2013-06-29 12:39:00,
2013-06-29 08:45:00,65.0,54.6,29.54,ENE,75,8.0,9.0,69,0.00,,,0.00,Wunderground v.1.15,2013-06-29 12:45:00,
2013-06-29 08:51:00,65.4,55.0,29.54,ENE,75,6.0,6.0,69,0.00,,,0.00,Wunderground v.1.15,2013-06-29 12:51:00,
2013-06-29 08:57:00,65.8,54.9,29.54,ENE,75,5.0,9.0,68,0.00,,,0.00,Wunderground v.1.15,2013-06-29 12:57:00,
2013-06-29 09:03:00,66.6,54.9,29.55,ENE,75,4.0,9.0,66,0.00,,,0.00,Wunderground v.1.15,2013-06-29 13:03:00,
2013-06-29 09:09:00,67.0,54.8,29.55,ENE,75,3.0,9.0,65,0.00,,,0.00,Wunderground v.1.15,2013-06-29 13:09:00,
2013-06-29 09:15:00,67.0,54.8,29.55,ENE,75,4.0,9.0,65,0.00,,,0.00,Wunderground v.1.15,2013-06-29 13:15:00,
2013-06-29 09:21:00,67.8,55.2,29.55,ENE,75,3.0,9.0,64,0.00,,,0.00,Wunderground v.1.15,2013-06-29 13:21:00,
2013-06-29 09:27:00,68.0,55.8,29.55,ENE,75,3.0,9.0,65,0.00,,,0.00,Wunderground v.1.15,2013-06-29 13:27:00,
2013-06-29 09:33:00,68.5,55.0,29.55,ENE,75,3.0,9.0,62,0.00,,,0.00,Wunderground v.1.15,2013-06-29 13:33:00,
2013-06-29 09:39:00,69.1,57.7,29.55,ENE,75,3.0,9.0,67,0.00,,,0.00,Wunderground v.1.15,2013-06-29 13:39:00,
2013-06-29 09:45:00,68.8,55.2,29.55,ENE,75,3.0,9.0,62,0.00,,,0.00,Wunderground v.1.15,2013-06-29 13:45:00,
2013-06-29 09:51:00,69.0,55.4,29.55,ENE,75,3.0,9.0,62,0.00,,,0.00,Wunderground v.1.15,2013-06-29 13:51:00,
2013-06-29 09:57:00,68.8,55.2,29.55,ENE,75,4.0,9.0,62,0.00,,,0.00,Wunderground v.1.15,2013-06-29 13:57:00,
2013-06-29 10:03:00,68.6,55.9,29.55,ENE,75,5.0,7.0,64,0.00,,,0.00,Wunderground v.1.15,2013-06-29 14:03:00,
2013-06-29 10:09:00,68.7,55.2,29.55,ENE,75,4.0,9.0,62,0.00,,,0.00,Wunderground v.1.15,2013-06-29 14:09:00,
2013-06-29 10:15:00,68.9,56.6,29.55,ENE,75,4.0,9.0,65,0.00,,,0.00,Wunderground v.1.15,2013-06-29 14:15:00,
2013-06-29 10:21:00,69.6,57.7,29.55,ENE,75,3.0,3.0,66,0.00,,,0.00,Wunderground v.1.15,2013-06-29 14:21:00,
2013-06-29 10:27:00,69.7,55.2,29.55,ENE,75,3.0,11.0,60,0.00,,,0.00,Wunderground v.1.15,2013-06-29 14:27:00,
2013-06-29 10:33:00,69.9,56.7,29.55,ENE,75,3.0,9.0,63,0.00,,,0.00,Wunderground v.1.15,2013-06-29 14:33:00,
2013-06-29 10:39:00,69.8,57.9,29.56,ENE,75,3.0,9.0,66,0.00,,,0.00,Wunderground v.1.15,2013-06-29 14:39:00,
2013-06-29 10:45:00,69.9,56.7,29.56,ENE,75,3.0,9.0,63,0.00,,,0.00,Wunderground v.1.15,2013-06-29 14:45:00,
2013-06-29 10:51:00,69.7,55.6,29.56,ENE,75,5.0,5.0,61,0.00,,,0.00,Wunderground v.1.15,2013-06-29 14:51:00,
2013-06-29 10:57:00,70.2,57.0,29.56,ENE,75,4.0,9.0,63,0.00,,,0.00,Wunderground v.1.15,2013-06-29 14:57:00,
2013-06-29 11:03:00,70.6,57.8,29.56,ENE,75,4.0,9.0,64,0.00,,,0.00,Wunderground v.1.15,2013-06-29 15:03:00,
2013-06-29 11:09:00,70.4,54.9,29.56,ENE,75,4.0,9.0,58,0.00,,,0.00,Wunderground v.1.15,2013-06-29 15:09:00,
2013-06-29 11:15:00,70.7,57.5,29.56,ENE,75,4.0,9.0,63,0.00,,,0.00,Wunderground v.1.15,2013-06-29 15:15:00,
2013-06-29 11:21:00,70.9,57.2,29.56,ENE,75,3.0,9.0,62,0.00,,,0.00,Wunderground v.1.15,2013-06-29 15:21:00,
2013-06-29 11:27:00,70.8,58.0,29.56,ENE,75,3.0,9.0,64,0.00,,,0.00,Wunderground v.1.15,2013-06-29 15:27:00,
2013-06-29 11:33:00,71.0,58.2,29.56,ENE,75,4.0,9.0,64,0.00,,,0.00,Wunderground v.1.15,2013-06-29 15:33:00,
2013-06-29 11:39:00,71.5,57.3,29.56,ENE,75,4.0,9.0,61,0.00,,,0.00,Wunderground v.1.15,2013-06-29 15:39:00,
2013-06-29 11:45:00,71.6,58.3,29.56,ENE,75,3.0,9.0,63,0.00,,,0.00,Wunderground v.1.15,2013-06-29 15:45:00,
2013-06-29 11:51:00,71.7,56.1,29.56,ENE,75,3.0,9.0,58,0.00,,,0.00,Wunderground v.1.15,2013-06-29 15:51:00,
2013-06-29 11:57:00,71.2,57.5,29.56,ENE,75,5.0,9.0,62,0.00,,,0.00,Wunderground v.1.15,2013-06-29 15:57:00,
2013-06-29 12:03:00,71.0,58.2,29.56,ENE,75,4.0,9.0,64,0.00,,,0.00,Wunderground v.1.15,2013-06-29 16:03:00,
2013-06-29 12:09:00,71.6,56.5,29.56,ENE,75,3.0,9.0,59,0.00,,,0.00,Wunderground v.1.15,2013-06-29 16:09:00,
2013-06-29 12:15:00,71.8,59.8,29.56,ENE,75,3.0,9.0,66,0.00,,,0.00,Wunderground v.1.15,2013-06-29 16:15:00,
2013-06-29 12:22:00,72.1,58.8,29.56,ENE,75,4.0,4.0,63,0.00,,,0.00,Wunderground v.1.15,2013-06-29 16:22:00,
2013-06-29 12:27:00,72.4,57.3,29.56,ENE,75,3.0,9.0,59,0.00,,,0.00,Wunderground v.1.15,2013-06-29 16:27:00,
2013-06-29 12:33:00,72.9,60.0,29.57,ENE,75,2.0,9.0,64,0.00,,,0.00,Wunderground v.1.15,2013-06-29 16:33:00,
2013-06-29 12:39:00,73.2,58.0,29.57,ENE,75,2.0,9.0,59,0.00,,,0.00,Wunderground v.1.15,2013-06-29 16:39:00,
2013-06-29 12:46:00,73.3,58.1,29.56,ENE,75,2.0,9.0,59,0.00,,,0.00,Wunderground v.1.15,2013-06-29 16:46:00,
2013-06-29 12:51:00,73.6,58.4,29.57,ENE,75,3.0,9.0,59,0.00,,,0.00,Wunderground v.1.15,2013-06-29 16:51:00,
2013-06-29 12:57:00,73.3,58.6,29.57,ENE,75,3.0,9.0,60,0.00,,,0.00,Wunderground v.1.15,2013-06-29 16:57:00,
2013-06-29 13:04:00,73.2,58.5,29.56,ENE,75,3.0,9.0,60,0.00,,,0.00,Wunderground v.1.15,2013-06-29 17:04:00,
2013-06-29 13:10:00,73.1,58.4,29.56,ENE,75,3.0,9.0,60,0.00,,,0.00,Wunderground v.1.15,2013-06-29 17:10:00,
2013-06-29 13:15:00,73.5,59.7,29.56,ENE,75,3.0,9.0,62,0.00,,,0.00,Wunderground v.1.15,2013-06-29 17:15:00,
2013-06-29 13:22:00,73.6,58.9,29.56,ENE,75,2.0,9.0,60,0.00,,,0.00,Wunderground v.1.15,2013-06-29 17:22:00,
2013-06-29 13:28:00,73.4,59.6,29.56,ENE,75,3.0,9.0,62,0.00,,,0.00,Wunderground v.1.15,2013-06-29 17:28:00,
2013-06-29 13:33:00,73.6,59.8,29.56,ENE,75,3.0,9.0,62,0.00,,,0.00,Wunderground v.1.15,2013-06-29 17:33:00,
2013-06-29 13:40:00,73.7,59.4,29.56,ENE,75,3.0,9.0,61,0.00,,,0.00,Wunderground v.1.15,2013-06-29 17:40:00,
2013-06-29 13:46:00,74.3,61.3,29.56,ENE,75,2.0,9.0,64,0.00,,,0.00,Wunderground v.1.15,2013-06-29 17:46:00,
2013-06-29 13:52:00,73.8,60.4,29.56,ENE,74,3.0,3.0,63,0.00,,,0.00,Wunderground v.1.15,2013-06-29 17:52:00,
2013-06-29 13:58:00,73.5,60.1,29.56,ENE,74,5.0,9.0,63,0.00,,,0.00,Wunderground v.1.15,2013-06-29 17:58:00,
2013-06-29 14:04:00,73.9,59.1,29.56,ENE,74,5.0,9.0,60,0.00,,,0.00,Wunderground v.1.15,2013-06-29 18:04:00,
2013-06-29 14:10:00,74.4,58.2,29.56,ENE,73,4.0,9.0,57,0.00,,,0.00,Wunderground v.1.15,2013-06-29 18:10:00,
2013-06-29 14:16:00,74.5,60.6,29.56,ENE,74,4.0,9.0,62,0.00,,,0.00,Wunderground v.1.15,2013-06-29 18:16:00,
2013-06-29 14:22:00,74.8,60.4,29.56,ENE,74,3.0,3.0,61,0.00,,,0.00,Wunderground v.1.15,2013-06-29 18:22:00,
2013-06-29 14:28:00,74.3,60.4,29.56,ENE,74,2.0,9.0,62,0.00,,,0.00,Wunderground v.1.15,2013-06-29 18:28:00,
2013-06-29 14:34:00,74.1,61.6,29.56,ENE,72,4.0,9.0,65,0.00,,,0.00,Wunderground v.1.15,2013-06-29 18:34:00,
2013-06-29 14:40:00,74.3,61.8,29.56,ENE,72,6.0,10.0,65,0.00,,,0.00,Wunderground v.1.15,2013-06-29 18:40:00,
2013-06-29 14:46:00,73.7,62.1,29.56,ENE,67,7.0,12.0,67,0.00,,,0.00,Wunderground v.1.15,2013-06-29 18:46:00,
2013-06-29 14:52:00,72.7,61.5,29.56,NE,47,7.0,7.0,68,0.00,,,0.00,Wunderground v.1.15,2013-06-29 18:52:00,
2013-06-29 14:58:00,72.4,62.5,29.56,NE,49,7.0,10.0,71,0.00,,,0.00,Wunderground v.1.15,2013-06-29 18:58:00,
2013-06-29 15:04:00,71.9,62.8,29.56,NE,47,7.0,9.0,73,0.00,,,0.00,Wunderground v.1.15,2013-06-29 19:04:00,
2013-06-29 15:10:00,71.1,61.6,29.56,NE,47,7.0,10.0,72,0.00,,,0.00,Wunderground v.1.15,2013-06-29 19:10:00,
2013-06-29 15:16:00,71.7,62.6,29.56,NE,47,6.0,9.0,73,0.00,,,0.00,Wunderground v.1.15,2013-06-29 19:16:00,
2013-06-29 15:22:00,71.7,62.6,29.55,NE,44,7.0,11.0,73,0.00,,,0.00,Wunderground v.1.15,2013-06-29 19:22:00,
2013-06-29 15:28:00,71.9,63.5,29.56,NE,44,7.0,11.0,75,0.00,,,0.00,Wunderground v.1.15,2013-06-29 19:28:00,
2013-06-29 15:34:00,73.0,63.0,29.55,NE,44,5.0,9.0,71,0.00,,,0.00,Wunderground v.1.15,2013-06-29 19:34:00,
2013-06-29 15:40:00,72.3,62.4,29.55,NE,43,6.0,9.0,71,0.00,,,0.00,Wunderground v.1.15,2013-06-29 19:40:00,
2013-06-29 15:46:00,73.1,62.7,29.55,NE,43,6.0,9.0,70,0.00,,,0.00,Wunderground v.1.15,2013-06-29 19:46:00,
2013-06-29 15:52:00,73.6,62.8,29.55,NE,43,4.0,4.0,69,0.00,,,0.00,Wunderground v.1.15,2013-06-29 19:52:00,
2013-06-29 15:58:00,74.0,63.2,29.55,NE,43,4.0,9.0,69,0.00,,,0.00,Wunderground v.1.15,2013-06-29 19:58:00,
2013-06-29 16:04:00,73.8,61.7,29.55,NE,43,6.0,9.0,66,0.00,,,0.00,Wunderground v.1.15,2013-06-29 20:04:00,
2013-06-29 16:10:00,73.9,62.2,29.55,NE,43,5.0,9.0,67,0.00,,,0.00,Wunderground v.1.15,2013-06-29 20:10:00,
2013-06-29 16:16:00,73.5,61.4,29.55,NE,44,5.0,9.0,66,0.00,,,0.00,Wunderground v.1.15,2013-06-29 20:16:00,
2013-06-29 16:22:00,72.4,61.2,29.55,NE,44,5.0,9.0,68,0.00,,,0.00,Wunderground v.1.15,2013-06-29 20:22:00,
2013-06-29 16:28:00,70.9,61.0,29.55,NE,44,5.0,9.0,71,0.00,,,0.00,Wunderground v.1.15,2013-06-29 20:28:00,
2013-06-29 16:34:00,70.5,61.0,29.55,NE,44,5.0,8.0,72,0.00,,,0.00,Wunderground v.1.15,2013-06-29 20:34:00,
2013-06-29 16:40:00,71.4,61.9,29.55,NE,44,6.0,9.0,72,0.00,,,0.00,Wunderground v.1.15,2013-06-29 20:40:00,
2013-06-29 16:46:00,71.1,61.2,29.56,NE,44,6.0,9.0,71,0.00,,,0.00,Wunderground v.1.15,2013-06-29 20:46:00,
2013-06-29 16:52:00,70.5,61.4,29.56,NE,44,5.0,5.0,73,0.00,,,0.00,Wunderground v.1.15,2013-06-29 20:52:00,
2013-06-29 16:58:00,70.7,61.6,29.56,NE,44,2.0,9.0,73,0.00,,,0.00,Wunderground v.1.15,2013-06-29 20:58:00,
2013-06-29 17:04:00,70.8,61.7,29.56,NE,44,3.0,9.0,73,0.00,,,0.00,Wunderground v.1.15,2013-06-29 21:04:00,
2013-06-29 17:10:00,71.0,62.7,29.56,NE,44,3.0,9.0,75,0.00,,,0.00,Wunderground v.1.15,2013-06-29 21:10:00,
2013-06-29 17:16:00,71.0,62.3,29.56,NE,44,4.0,9.0,74,0.00,,,0.00,Wunderground v.1.15,2013-06-29 21:16:00,
2013-06-29 17:22:00,70.9,62.2,29.56,NE,44,4.0,9.0,74,0.00,,,0.00,Wunderground v.1.15,2013-06-29 21:22:00,
2013-06-29 17:28:00,71.0,63.1,29.56,NE,44,5.0,9.0,76,0.00,,,0.00,Wunderground v.1.15,2013-06-29 21:28:00,
2013-06-29 17:34:00,70.5,62.2,29.56,NE,44,5.0,9.0,75,0.00,,,0.00,Wunderground v.1.15,2013-06-29 21:34:00,
2013-06-29 17:40:00,70.2,62.3,29.56,NE,44,5.0,9.0,76,0.00,,,0.00,Wunderground v.1.15,2013-06-29 21:40:00,
2013-06-29 17:46:00,70.9,63.0,29.56,NE,44,5.0,9.0,76,0.00,,,0.00,Wunderground v.1.15,2013-06-29 21:46:00,
2013-06-29 17:52:00,71.7,63.0,29.56,NE,44,5.0,9.0,74,0.00,,,0.00,Wunderground v.1.15,2013-06-29 21:52:00,
2013-06-29 17:58:00,71.4,63.4,29.56,NE,44,5.0,9.0,76,0.00,,,0.00,Wunderground v.1.15,2013-06-29 21:58:00,
2013-06-29 18:04:00,70.6,62.7,29.56,NE,44,5.0,9.0,76,0.00,,,0.00,Wunderground v.1.15,2013-06-29 22:04:00,
2013-06-29 18:10:00,70.0,62.5,29.56,NE,44,5.0,9.0,77,0.00,,,0.00,Wunderground v.1.15,2013-06-29 22:10:00,
2013-06-29 18:16:00,69.7,62.2,29.56,NE,44,4.0,9.0,77,0.00,,,0.00,Wunderground v.1.15,2013-06-29 22:16:00,
2013-06-29 18:22:00,69.6,62.4,29.57,NE,44,3.0,9.0,78,0.00,,,0.00,Wunderground v.1.15,2013-06-29 22:22:00,
2013-06-29 18:28:00,69.7,62.2,29.57,NE,44,4.0,9.0,77,0.00,,,0.00,Wunderground v.1.15,2013-06-29 22:28:00,
2013-06-29 18:34:00,69.5,62.3,29.57,NE,44,4.0,9.0,78,0.00,,,0.00,Wunderground v.1.15,2013-06-29 22:34:00,
2013-06-29 18:40:00,69.4,62.2,29.57,NE,44,4.0,9.0,78,0.00,,,0.00,Wunderground v.1.15,2013-06-29 22:40:00,
2013-06-29 18:46:00,69.5,62.0,29.57,NE,44,5.0,9.0,77,0.00,,,0.00,Wunderground v.1.15,2013-06-29 22:46:00,
2013-06-29 18:52:00,69.3,62.1,29.57,NE,44,6.0,6.0,78,0.00,,,0.00,Wunderground v.1.15,2013-06-29 22:52:00,
2013-06-29 18:58:00,69.1,61.6,29.58,NE,44,5.0,9.0,77,0.00,,,0.00,Wunderground v.1.15,2013-06-29 22:58:00,
2013-06-29 19:04:00,69.1,61.6,29.58,NE,44,4.0,9.0,77,0.00,,,0.00,Wunderground v.1.15,2013-06-29 23:04:00,
2013-06-29 19:10:00,69.1,61.9,29.58,NE,44,4.0,9.0,78,0.00,,,0.00,Wunderground v.1.15,2013-06-29 23:10:00,
2013-06-29 19:16:00,69.1,61.9,29.58,NE,44,5.0,10.0,78,0.00,,,0.00,Wunderground v.1.15,2013-06-29 23:16:00,
2013-06-29 19:22:00,69.8,62.6,29.58,NE,44,5.0,5.0,78,0.00,,,0.00,Wunderground v.1.15,2013-06-29 23:22:00,
2013-06-29 19:28:00,70.3,62.4,29.59,NE,44,5.0,9.0,76,0.00,,,0.00,Wunderground v.1.15,2013-06-29 23:28:00,
2013-06-29 19:34:00,70.0,62.1,29.59,NE,44,5.0,9.0,76,0.00,,,0.00,Wunderground v.1.15,2013-06-29 23:34:00,
2013-06-29 19:40:00,69.4,61.9,29.60,NE,44,3.0,9.0,77,0.00,,,0.00,Wunderground v.1.15,2013-06-29 23:40:00,
2013-06-29 19:46:00,69.0,61.9,29.60,NE,44,2.0,9.0,78,0.00,,,0.00,Wunderground v.1.15,2013-06-29 23:46:00,
2013-06-29 19:52:00,68.7,61.9,29.60,NE,44,3.0,9.0,79,0.00,,,0.00,Wunderground v.1.15,2013-06-29 23:52:00,
2013-06-29 19:58:00,68.4,62.0,29.60,NE,46,4.0,9.0,80,0.00,,,0.00,Wunderground v.1.15,2013-06-29 23:58:00,
2013-06-29 20:04:00,68.1,61.7,29.60,NE,46,5.0,5.0,80,0.00,,,0.00,Wunderground v.1.15,2013-06-30 00:04:00,
2013-06-29 20:10:00,68.0,61.9,29.61,NE,45,4.0,9.0,81,0.00,,,0.00,Wunderground v.1.15,2013-06-30 00:10:00,
2013-06-29 20:16:00,67.9,61.9,29.61,NE,46,4.0,9.0,81,0.00,,,0.00,Wunderground v.1.15,2013-06-30 00:16:00,
2013-06-29 20:22:00,67.9,61.5,29.61,NE,47,5.0,5.0,80,0.00,,,0.00,Wunderground v.1.15,2013-06-30 00:22:00,
2013-06-29 20:28:00,67.9,61.5,29.61,NE,47,4.0,9.0,80,0.00,,,0.00,Wunderground v.1.15,2013-06-30 00:28:00,
2013-06-29 20:34:00,67.9,61.1,29.61,NE,47,5.0,9.0,79,0.00,,,0.00,Wunderground v.1.15,2013-06-30 00:34:00,
2013-06-29 20:40:00,67.9,61.1,29.61,NE,47,5.0,9.0,79,0.00,,,0.00,Wunderground v.1.15,2013-06-30 00:40:00,
2013-06-29 20:46:00,67.9,61.1,29.61,NE,47,6.0,9.0,79,0.00,,,0.00,Wunderground v.1.15,2013-06-30 00:46:00,
2013-06-29 20:52:00,67.9,61.1,29.61,NE,47,6.0,6.0,79,0.00,,,0.00,Wunderground v.1.15,2013-06-30 00:52:00,
2013-06-29 20:58:00,67.8,61.4,29.61,NE,47,5.0,9.0,80,0.00,,,0.00,Wunderground v.1.15,2013-06-30 00:58:00,
2013-06-29 21:04:00,67.7,61.0,29.61,NE,49,5.0,9.0,79,0.00,,,0.00,Wunderground v.1.15,2013-06-30 01:04:00,
2013-06-29 21:10:00,67.7,61.3,29.61,NE,49,5.0,9.0,80,0.00,,,0.00,Wunderground v.1.15,2013-06-30 01:10:00,
2013-06-29 21:16:00,67.7,61.0,29.62,NE,49,5.0,9.0,79,0.00,,,0.00,Wunderground v.1.15,2013-06-30 01:16:00,
2013-06-29 21:22:00,67.7,61.0,29.62,NE,49,4.0,4.0,79,0.00,,,0.00,Wunderground v.1.15,2013-06-30 01:22:00,
2013-06-29 21:28:00,67.7,61.0,29.63,NE,49,4.0,9.0,79,0.00,,,0.00,Wunderground v.1.15,2013-06-30 01:28:00,
2013-06-29 21:34:00,67.7,61.0,29.63,NE,49,4.0,9.0,79,0.00,,,0.00,Wunderground v.1.15,2013-06-30 01:34:00,
2013-06-29 21:40:00,67.7,61.0,29.63,NE,49,3.0,9.0,79,0.00,,,0.00,Wunderground v.1.15,2013-06-30 01:40:00,
2013-06-29 21:46:00,67.7,61.0,29.64,NE,49,3.0,9.0,79,0.00,,,0.00,Wunderground v.1.15,2013-06-30 01:46:00,
2013-06-29 21:52:00,67.7,61.0,29.64,NE,49,2.0,9.0,79,0.00,,,0.00,Wunderground v.1.15,2013-06-30 01:52:00,
2013-06-29 21:58:00,67.7,61.0,29.64,NE,49,2.0,9.0,79,0.00,,,0.00,Wunderground v.1.15,2013-06-30 01:58:00,
2013-06-29 22:04:00,67.6,60.9,29.64,NE,49,2.0,9.0,79,0.00,,,0.00,Wunderground v.1.15,2013-06-30 02:04:00,
2013-06-29 22:10:00,67.6,60.9,29.64,NE,49,3.0,9.0,79,0.00,,,0.00,Wunderground v.1.15,2013-06-30 02:10:00,
2013-06-29 22:16:00,67.6,61.2,29.64,NE,49,2.0,9.0,80,0.00,,,0.00,Wunderground v.1.15,2013-06-30 02:16:00,
2013-06-29 22:22:00,67.6,61.2,29.64,NE,49,3.0,9.0,80,0.00,,,0.00,Wunderground v.1.15,2013-06-30 02:22:00,
2013-06-29 22:28:00,67.6,61.2,29.64,NE,49,2.0,9.0,80,0.00,,,0.00,Wunderground v.1.15,2013-06-30 02:28:00,
2013-06-29 22:34:00,67.5,61.1,29.64,NE,49,1.0,9.0,80,0.00,,,0.00,Wunderground v.1.15,2013-06-30 02:34:00,
2013-06-29 22:36:00,67.5,61.5,29.65,NE,49,1.0,9.0,81,0.00,,,0.00,Wunderground v.1.15,2013-06-30 02:36:00,
2013-06-29 22:42:00,67.4,61.4,29.65,NE,49,2.0,2.0,81,0.00,,,0.00,Wunderground v.1.15,2013-06-30 02:42:00,
2013-06-29 22:48:00,67.4,61.4,29.65,NE,49,1.0,9.0,81,0.00,,,0.00,Wunderground v.1.15,2013-06-30 02:48:00,
2013-06-29 22:54:00,67.2,61.2,29.65,NE,49,2.0,9.0,81,0.00,,,0.00,Wunderground v.1.15,2013-06-30 02:54:00,
2013-06-29 23:00:00,67.0,61.3,29.65,NE,49,3.0,9.0,82,0.00,,,0.00,Wunderground v.1.15,2013-06-30 03:00:00,
2013-06-29 23:06:00,66.8,61.1,29.65,NE,49,5.0,9.0,82,0.00,,,0.00,Wunderground v.1.15,2013-06-30 03:06:00,
2013-06-29 23:12:00,66.7,61.0,29.65,NE,49,5.0,9.0,82,0.00,,,0.00,Wunderground v.1.15,2013-06-30 03:12:00,
2013-06-29 23:18:00,66.6,60.9,29.65,NE,49,6.0,9.0,82,0.00,,,0.00,Wunderground v.1.15,2013-06-30 03:18:00,
2013-06-29 23:24:00,66.6,61.3,29.65,NE,49,6.0,9.0,83,0.00,,,0.00,Wunderground v.1.15,2013-06-30 03:24:00,
2013-06-29 23:30:00,66.6,61.3,29.65,NE,49,6.0,9.0,83,0.00,,,0.00,Wunderground v.1.15,2013-06-30 03:30:00,
2013-06-29 23:36:00,66.5,61.2,29.65,NE,49,6.0,9.0,83,0.00,,,0.00,Wunderground v.1.15,2013-06-30 03:36:00,
2013-06-29 23:42:00,66.3,61.3,29.65,NE,49,6.0,9.0,84,0.00,,,0.00,Wunderground v.1.15,2013-06-30 03:42:00,
2013-06-29 23:48:00,66.0,61.7,29.65,NE,49,5.0,9.0,86,0.00,,,0.00,Wunderground v.1.15,2013-06-30 03:48:00,
2013-06-29 23:54:00,65.8,61.8,29.65,NE,49,5.0,6.0,87,0.00,,,0.00,Wunderground v.1.15,2013-06-30 03:54:00,